Location: Unspecified
(0.0000°N, 0.0000°E)
Time: 01:42:20
(UTC+00:00)

CZ-3B DEB - Pass Details

Date: 20 December 2025
Orbit: 439 x 40833 km, 23.6° (Epoch: 17 December)

Event Time Altitude Azimuth Distance (km) Brightness Sun altitude
Rises 16:22:56 0° 292° (WNW) 9,426 ? 21.7°
Reaches altitude 10° 16:27:44 10° 297° (WNW) 9,835 ? 20.6°
Maximum altitude 18:48:15 59° 322° (NW) 31,371 ? -11.5°
Drops below altitude 10° 03:52:18 10° 159° (SSE) 3,220 ? -28.6°
Sets 03:54:41 0° 140° (SE) 3,481 ? -28.1°
